Location: Unspecified
(49.0500°N, 0.0000°E)
Time: 20:46:42
(UTC+00:00)

OTV 5 (USA 277) - Pass Details

Date: 20 June 2019
Orbit: 299 x 335 km, 54.5° (Epoch: 13 July)

Event Time Altitude Azimuth Distance (km) Brightness Sun altitude
Exits shadow 23:12:15 - 251° (WSW) 1,340 ? -16.7°
Reaches altitude 10° 23:12:25 10° 251° (WSW) 1,270 ? -16.7°
Maximum altitude 23:15:13 65° 335° (NNW) 372 ? -16.8°
Drops below altitude 10° 23:18:02 10° 58° (ENE) 1,268 ? -16.9°
Enters shadow 00:29:37 -37° 262° (W) 8,128 ? -17.2°
